User: anonymous   Login
Location: Unspecified
(0.0000°N, 0.0000°E)
Time: 07:38:46
(UTC+00:00)
Language:

Himawari 2 - Orbit

View from above orbital plane
View from above orbital plane
View from above satellite
View from above satellite

Ground track
Ground track

The orbit data is extracted from the following two-line orbital elements,

1 12677U 81076A   17289.14258486  .00000018  00000-0  00000+0 0  9998
2 12677  13.9484 334.3747 0013309 247.8466  98.0170  0.99548546100701
Epoch (UTC): 16 October 2017 03:25:19
Eccentricity: 0.0013309
inclination: 13.9484°
perigee height: 35934 km
apogee height: 36046 km
right ascension of ascending node: 334.3747°
argument of perigee: 247.8466°
revolutions per day: 0.99548546
mean anomaly at epoch: 98.0170°
orbit number at epoch: 10070

The dashed part of the orbit path shows where the satellite is in the earth's shadow,  

DLR